Regional Weather Roundup
Issued by NWS Sterling, VA

Home | Current Version | Previous Version | Graphics & Text | Print | Product List | Glossary On
Versions: 1 2 3 4 5 6 7 8 9 10 11 12 13 14 15 16 17 18 19 20 21 22 23 24 25 26 27 28 29 30 31 32 33 34 35 36 37 38 39 40 41 42 43 44 45 46 47 48 49 50
000
ASUS41 KLWX 041910
RWRLWX

REGIONAL WEATHER ROUNDUP
NATIONAL WEATHER SERVICE BALTIMORE MD/WASHINGTON DC
300 PM EDT TUE AUG 04 2015

Note: "FAIR" indicates few or no clouds below 12,000 feet
with no significant weather and/or obstructions to visibility.
 TC=TEMPERATURE CELSIUS

 * =Non NWS site. Station does not report precipitation (e.g. rain,
    snow, etc.), thunder, or fog.

DCZ001-MDZ009-015-VAZ040>042-051-053>054-042000-
WASHINGTON METRO

CITY           SKY/WX    TMP DP  RH WIND       PRES   REMARKS
WASHINGTON NAT MOSUNNY   95  63  34 SW14G20   29.89F HX  96
DULLES         MOSUNNY   90  64  42 W10       29.90F HX  91
ANDREWS AFB    MOSUNNY   92  62  36 W12G18    29.90F HX  93
FT BELVOIR     SUNNY     92  65  41 VRB6      29.90F HX  93
QUANTICO       MOSUNNY   94  63  35 W9G20     29.90F HX  95
COLLEGE PARK*  MOSUNNY   90  61  37 W9        29.89F
LEESBURG*      PTSUNNY   91  68  46 W6        29.91F HX  95
MANASSAS*      MOSUNNY   91  61  35 SW10      29.90F HX  91
GAITHERSBURG*  MOSUNNY   90  66  45 W7        29.95F HX  92

$$

MDZ006>007-011-014-042000-
BALTIMORE METRO

CITY           SKY/WX    TMP DP  RH WIND       PRES   REMARKS
BWI AIRPORT    MOSUNNY   90  66  45 W10       29.89F HX  92
MD SCIENCE CTR   N/A     90  63  40 MISG      29.89F HX  91
MARTIN STATE   PTSUNNY   91  66  43 W12       29.90F HX  94
ANNAPOLIS      MOSUNNY   90  65  43 VRB7      29.89F HX  92
FORT MEADE*    MOSUNNY   88  64  45 CALM      29.92F

$$

MDZ012-015-019>023-042000-
MARYLAND EASTERN SHORE

CITY           SKY/WX    TMP DP  RH WIND       PRES   REMARKS
OCEAN CITY     SUNNY     94  67  41 W17G23    29.91S HX  97
SALISBURY      SUNNY     90  68  48 W17G23    29.91S HX  94
BAY BRIDGE AP*   N/A     88  61  40 SW6       29.90S
CAMBRIDGE*     SUNNY     91  68  46 W5        29.90F HX  95
EASTON*        MOSUNNY   91  72  52 W7        29.95S HX  98

$$

MDZ017>025-042000-
SOUTHERN MARYLAND

CITY           SKY/WX    TMP DP  RH WIND       PRES   REMARKS
PATUXENT RIVER MOSUNNY   92  68  45 SW9       29.90F HX  96
ST INIGOES     NOT AVBL
LEONARDTOWN*   SUNNY     90  64  43 W12       29.92F HX  91

$$

MDZ003>005-042000-
NORTH CENTRAL MARYLAND

CITY           SKY/WX    TMP DP  RH WIND       PRES   REMARKS
FREDERICK*     MOSUNNY   90  66  45 MISG      29.94F HX  92
HAGERSTOWN APT PTSUNNY   87  56  34 W8        29.92F
WESTMINSTER*   MOSUNNY   88  61  40 W7G18     29.93F

$$

MDZ501>502-042000-
WESTERN MARYLAND

CITY           SKY/WX    TMP DP  RH WIND       PRES   REMARKS
OAKLAND*       MOSUNNY   73  63  68 W9        30.06S
CUMBERLAND*    SUNNY     88  54  31 W9G18     29.97F

$$

VAZ025>031-042000-
SHENANDOAH VALLEY

CITY           SKY/WX    TMP DP  RH WIND       PRES   REMARKS
WINCHESTER*    SUNNY     90  63  40 W12G17    29.92F HX  90
FRONT ROYAL*   FAIR      90  64  43 SW3       29.91F HX  91
LURAY*         MOCLDY    90  64  43 S9        29.93F HX  91
NEW MARKET*    MOCLDY    88  69  52 S3        29.90F HX  92
STAUNTON*      MOSUNNY   92  61  34 SW10G21   29.98F HX  92
WAYNESBORO*    FAIR      86  65  48 SW8G18    29.98F

$$

WVZ021-048>050-054>055-042000-
EASTERN WEST VIRGINIA PANHANDLE

CITY           SKY/WX    TMP DP  RH WIND       PRES   REMARKS
MARTINSBURG    MOSUNNY   88  61  40 W10       29.92F
PETERSBURG*    MOSUNNY   88  62  42 W8        29.94F

$$

VAZ036>039-050-042000-
CENTRAL FOOTHILLS

CITY           SKY/WX    TMP DP  RH WIND       PRES   REMARKS
CHARLOTTESVILL MOSUNNY   90  65  43 W9        29.93F HX  92
CULPEPER*      SUNNY     89  67  48 SW8       29.92F HX  91
ORANGE*        SUNNY     91  64  40 S10       29.94F HX  93
GORDONSVILLE*  FAIR      90  66  45 SW9G16    29.92F HX  92
WARRENTON*     FAIR      93  69  45 S7        29.91F HX  97

$$

VAZ055>057-042000-
NORTH AND CENTRAL PIEDMONT

CITY           SKY/WX    TMP DP  RH WIND       PRES   REMARKS
FREDERICKSBRG* SUNNY     94  65  38 W8G18     29.89F HX  96
STAFFORD*      MOSUNNY   92  60  34 W8        29.95F HX  91

$$

NCZ024-NYZ072-PAZ021-071-VAZ022-071-042000-
OTHER REGIONAL OBSERVATIONS

CITY           SKY/WX    TMP DP  RH WIND       PRES   REMARKS
NEW YORK CITY  SUNNY     89  57  33 W9G18     29.87S
PHILADELPHIA   MOSUNNY   91  60  35 W17       29.88F HX  90
PITTSBURGH     MOSUNNY   80  52  37 W12       29.97F
ROANOKE        MOSUNNY   92  65  40 NW9       29.98F HX  94
RICHMOND       MOSUNNY   94  71  47 SW10      29.91F HX 101
RALEIGH        MOSUNNY   90  69  50 SE5       29.96F HX  94

$$

ANZ530>537-042000-
MARINE OBSERVATIONS

STATION/POSITION TIME  TEMP    WIND        PRES
                       AIR SEA DIR/SP/G
                 (UTC) (F)     (DEG/KT/KT) (MB)
THOMAS PT LIGHT  NOT AVBL
BALT KEY BRIDGE  1800   86     270/ 15/ 16 1012.4F
COVE POINT       1800   87     260/ 11/ 14 1013.6F
LEWISETTA        1800   88 85  260/ 11/ 14 1012.7F
SOLOMONS ISLAND  1800      83                N/A
PINEY POINT      1800          360/  4/  5   N/A

$$



USA.gov is the U.S. government's official web portal to all federal, state and local government web resources and services.